Weather Roundup
Issued by NWS

Home | Current Version | Previous Version | Text Only | Print | Product List | Glossary On
Versions: 1 2 3 4 5 6 7 8 9 10 11 12 13 14 15 16 17 18 19 20 21 22 23 24 25 26 27 28 29 30 31 32 33 34 35 36 37 38 39 40 41 42 43 44 45 46 47 48 49 50
000
NZUS93 KARX 280710
HRRWXR

CURRENT HOURLY OBSERVATIONS ACROSS
MUCH OF THE UPPER MISSISSIPPI VALLEY
NATIONAL WEATHER SERVICE LA CROSSE WI
200 AM CDT THU MAY 28 2015


...SOUTHEAST MINNESOTA...


CITY           SKY/WX    TMP DP  RH WIND       PRES   REMARKS
ROCHESTER      CLEAR     61  56  83 S9        30.09S
ROCHESTER/MAYO NOT AVBL
WINONA         NOT AVBL
AUSTIN         NOT AVBL
ALBERT LEA     NOT AVBL
DODGE CENTER   NOT AVBL
PRESTON        NOT AVBL
OWATONNA       NOT AVBL
FARIBAULT      NOT AVBL
$$

...ELSEWHERE IN MINNESOTA...


CITY           SKY/WX    TMP DP  RH WIND       PRES   REMARKS
MINNEAPOLIS    CLEAR     66  57  72 E3        30.04R
INTNL FALLS    CLEAR     53  46  77 E5        30.04S
DULUTH         CLEAR     57  45  64 E10       30.08R
RED WING       NOT AVBL
REDWOOD FALLS  MOCLDY    65  55  70 S7        30.02R
MANKATO        CLEAR     66  54  63 S8        30.05S
WORTHINGTON    PTCLDY    64  48  55 S9        30.07S
FAIRMONT       CLEAR     64  52  63 S8        30.06S
$$

...SOUTHWEST WISCONSIN...


CITY           SKY/WX    TMP DP  RH WIND       PRES   REMARKS
LA CROSSE      CLEAR     65  61  87 S6        30.08R
PRAIRIE DU CHI CLEAR     58  56  91 CALM      30.11S
BOSCOBEL       FOG       56  55  97 CALM      30.12R VSB 1/4
LONE ROCK      CLEAR     59  56  89 CALM      30.12R
PLATTEVILLE    CLEAR     62  59  88 S5        30.14S
FORT MC COY    CLEAR     54  53  97 CALM      30.11R
CAMP DOUGLAS   CLEAR     58  58 100 SE1       30.10R
VIROQUA        FAIR      64  57  80 S8        30.11S
WIS DELLS      CLEAR     60  55  83 CALM      30.12R
$$

...ELSEWHERE IN WISCONSIN...


CITY           SKY/WX    TMP DP  RH WIND       PRES   REMARKS
MILWAUKEE      CLEAR     60  55  83 SW5       30.13R
MADISON        CLEAR     64  58  80 S6        30.13R
GREEN BAY      CLEAR     60  55  83 SW5       30.09R
EAU CLAIRE     CLEAR     61  54  77 S3        30.06R
BLACK RVR FLS  FAIR      54  54 100 CALM      30.08S FOG
MEDFORD        CLEAR     54  53  95 S6        30.09R
WAUSAU         CLEAR     58  56  93 S7        30.08R
WIS RAPIDS     CLEAR     56  53  90 SW3       30.10S
MARSHFIELD     CLEAR     57  53  86 E3        30.10R
RICE LAKE      CLEAR     55  53  93 CALM      30.08R
$$

...NORTHEAST IOWA...


CITY           SKY/WX    TMP DP  RH WIND       PRES   REMARKS
DECORAH        MOCLDY    64  57  77 S5        30.10S
MASON CITY     CLEAR     59  55  87 S7        30.10S
CHARLES CITY   CLEAR     63  61  94 S7        30.11S
OELWEIN        CLEAR     63  57  82 S6        30.12F
$$

...ELSEWHERE IN IOWA...


CITY           SKY/WX    TMP DP  RH WIND       PRES   REMARKS
DES MOINES     PTCLDY    66  58  75 S8        30.10F
IOWA CITY      CLEAR     62  59  90 CALM      30.14F
FORT DODGE     CLEAR     64  54  68 S3        30.10S
$$

...NORTHERN ILLINOIS...


CITY           SKY/WX    TMP DP  RH WIND       PRES   REMARKS
CHICAGO-OHARE  PTCLDY    58  54  86 CALM      30.16R
CHICAGO-MIDWAY PTCLDY    63  56  78 CALM      30.16R
MOLINE         CLEAR     60  55  83 CALM      30.14S
ROCKFORD       CLEAR     60  55  83 S3        30.17R
PEORIA         PTCLDY    62  57  83 SW3       30.18R
$$

NOTE: "FAIR" INDICATES FEW OR NO CLOUDS BELOW 12,000 FEET WITH NO
SIGNIFICANT WEATHER AND/OR OBSTRUCTIONS TO VISIBILITY. WIND
SPEEDS ARE IN MILES-PER-HOUR.



USA.gov is the U.S. government's official web portal to all federal, state and local government web resources and services.